This demonstration page uses our WeatherBlox Daily Observations layout. Learn more.

Left ArrowRight Arrow

Hourly Observations for June 5, 2020

Temp ( °F °C ) Dew Point ( °F °C ) Humidity (%) Winds ( mph kmh ) Pressure ( in mb ) Visibility ( mi km ) Precip ( " mm )
12:53 am 00:53 Clear 84 28.9 58 14.4 41 41 SE 17 28 29.73 1007 10 16 0.00 0.00
1:53 am 01:53 Clear 82 27.8 59 15 46 46 SE 20 31 29.75 1008 10 16 0.00 0.00
2:53 am 02:53 Clear 80 26.7 60 15.6 51 51 SSE 15 24 29.75 1007 10 16 0.00 0.00
3:53 am 03:53 Clear 79 26.1 61 16.1 54 54 SE 18 30 29.76 1008 10 16 0.00 0.00
4:53 am 04:53 Clear 77 25 63 17.2 62 62 SSE 17 28 29.75 1008 10 16 0.00 0.00
5:53 am 05:53 Clear 76 24.4 63 17.2 64 64 SSE 13 20 29.75 1008 10 16 0.00 0.00
6:53 am 06:53 Sunny 74 23.3 63 17.2 69 69 SSE 7 11 29.78 1008 10 16 0.00 0.00
7:53 am 07:53 Sunny 75 23.9 63 17.2 66 66 ESE 6 9 29.80 1009 10 16 0.00 0.00
8:53 am 08:53 Sunny 80 26.7 63 17.2 56 56 SE 9 15 29.81 1010 10 16 0.00 0.00
9:53 am 09:53 Sunny 84 28.9 62 16.7 48 48 ESE 15 24 29.84 1011 10 16 0.00 0.00
10:53 am 10:53 Sunny 86 30 62 16.7 45 45 ESE 15 24 29.83 1010 10 16 0.00 0.00
11:53 am 11:53 Sunny 90 32.2 60 15.6 37 37 SE 15 24 29.83 1010 10 16 0.00 0.00
12:53 pm 12:53 Sunny 94 34.4 56 13.3 28 28 SSE 18 30 29.80 1009 10 16 0.00 0.00
1:53 pm 13:53 Sunny 97 36.1 53 11.7 23 23 S 14 22 29.78 1009 10 16 0.00 0.00
2:53 pm 14:53 Sunny 100 37.8 53 11.7 21 21 S 12 19 29.77 1008 10 16 0.00 0.00
3:53 pm 15:53 Sunny 101 38.3 51 10.6 19 19 SE 14 22 29.74 1007 10 16 0.00 0.00
4:53 pm 16:53 Sunny 101 38.3 52 11.1 19 19 ESE 15 24 29.72 1007 10 16 0.00 0.00
5:53 pm 17:53 Sunny 101 38.3 53 11.7 20 20 ESE 18 30 29.71 1006 10 16 0.00 0.00
6:53 pm 18:53 Sunny 99 37.2 53 11.7 21 21 ESE 15 24 29.71 1006 10 16 0.00 0.00
7:53 pm 19:53 Sunny 98 36.7 53 11.7 22 22 SE 17 28 29.71 1006 10 16 0.00 0.00
8:53 pm 20:53 Sunny 94 34.4 53 11.7 25 25 SE 17 28 29.72 1007 10 16 0.00 0.00
9:53 pm 21:53 Clear 91 32.8 54 12.2 28 28 SE 15 24 29.74 1007 10 16 0.00 0.00
10:53 pm 22:53 Clear 88 31.1 54 12.2 31 31 SE 13 20 29.77 1008 10 16 0.00 0.00
11:53 pm 23:53 Clear 86 30 56 13.3 36 36 SSE 16 26 29.78 1009 10 16 0.00 0.00

Powered by AerisWeather